Location: Friaudour
(46.0460°N, 1.2873°E)
Time: 15:40:25
(UTC+00:00)

Spot 4 Rocket - Pass Details

Date: 31 October 2020
Orbit: 776 x 781 km, 98.7° (Epoch: 29 November)

Event Time Altitude Azimuth Distance (km) Brightness Sun altitude
Rises 04:43:35 0° 1° (N) 3,270 7.3 -19.7°
Reaches altitude 10° 04:46:31 10° 344° (NNW) 2,338 6.3 -19.2°
Enters shadow 04:48:08 16° 327° (NNW) 1,970 5.8 -18.9°
